Live Position
Loading 3D Globe...
About Flock 4be-12
Group: 3 satellites
Description loading...
Upcoming Passes
Passes for default location (London). Set your location on the main map for personalized predictions.
Altitude History
Loading altitude history...
No altitude history available
Two-Line Element Set
1 60560U 24149CW 26106.19867638 .00095060 00000-0 13084-2 0 9998
2 60560 97.3680 191.1215 0006088 182.3973 177.7254 15.56916492 92885
Epoch: Apr 16, 2026 •
Age: 22 hours
Current Status
Altitude 397.0 km
Velocity 7.67 km/s
Sub-Earth Point -9.89°S,
117.91°E
Launch Date Aug 16, 2024
Age 1.6 years
Type earth observation
Technical Details
Classification Payload
Mass 5.70 kg
Dry Mass 5.70 kg
Total Mass 5.70 kg
Length 0.30 m
Diameter 0.10 m
Span 0.30 m
Shape Box+2 pan
Manufacturer PLAN
Bus Type Cubesat 3U
Phase Status In Orbit
Owner/State PLAN/US
Most Searched
Loading...